Погода в Тукумсе

Латвия     56°57′59″N   23°09′15″E
темп.,
°C
ветер,
м/с
пор.,
м/с
влажн.,
%
обл.,
%
осадки,
мм/ч
давл.,
гПа
погр.,
м
14 августа, вс
вс1400:00+17св2274100 0.0 102026
03:00+17св128394 0.0 102012
06:00+16в11873 0.0 101911
09:00+21в23559 0.0 1019251
12:00+25в3446100 0.0 1019898
15:00+27всв354255 0.0 10181232
18:00+25св355053 0.0 1017451
21:00+20св2377100 0.0 101755
15 августа, пн
пн1500:00+20вюв2376100 0.0 101656
03:00+18юв249163 0.0 101679
06:00+17юв279594 0.4 1016153
09:00+21юв3680100 0.4 1015266
12:00+27юв465167 0.0 10151014
15:00+29юв574281 0.0 10141968
18:00+29юв464424 0.0 10131774
21:00+23юв386789 0.0 1013225
16 августа, вт
вт1600:00+21вюв268296 0.5 1014117
03:00+19юв2794100 2.1 1014172
06:00+18юв2696100 0.1 1014127
09:00+21юв388579 0.1 1014289
12:00+27вюв355197 0.0 1013828
15:00+30вюв464135 0.0 10131645
18:00+30юв35395 0.0 10122088
21:00+22вюв397021 0.1 1013221
17 августа, ср
ср1700:00+20юв297998 0.0 1013252
03:00+19юв278775 0.0 1013202
06:00+18ююв399344 0.0 1013203
09:00+21ююв278065 0.0 1014277
12:00+27ююв4652100 0.0 1014833
15:00+25ююв146071 0.0 1015359
18:00+29вюв344343 0.0 1014851
21:00+22в227124 0.0 101412
18 августа, чт
чт1800:00+21вюв2273100 0.0 101537
03:00+19юв2272100 0.0 101420
06:00+18юв2276100 0.0 101430
09:00+23вюв366171 0.0 1015290
12:00+28в464411 0.0 10141075
15:00+30в46385 0.0 10141348
18:00+30в36400 0.0 10131229
21:00+24вюв24605 0.0 101365